"Pseudo-MPEC" for P10NVB9

Created 2019 May 19 15:07:22 UT using Find_Orb

Click here for an explanation of pseudo-MPECs

 
 Astrometry: 
     P10NVB9  C2019 05 12yit;a_Vf85d7DGypG[(@EriAstrometry/6Fredacted;A4-(8,KF51
     P10NVB9  C2019 05 12fH3KXSHr/Fs.ptCx;hclickq^Q-+heresul!3x'n%3!C[s,'lnwgF51
     P10NVB9  C2019 05 127u\F@W-%P)q,p3pJ'P](MrVZyNPCfforL%lL#Zexplanation%TcF51

Station data:
(F51) Pan-STARRS 1, Haleakala  (N20.707235 W156.255910)  US/Hawaii.
   Observers N. Primak, A. Schultz, S. Watters, J. Thiel, T. Goggia. Measurer
   PS1 Science Consortium. 1.8-m Ritchey-Chrétien + CCD.

Orbital elements:  P10NVB9
   Perihelion 2019 May 28.379238 +/- 35.8 TT =  9:06:06 (JD 2458631.879238)
Epoch 2019 May 13.0 TT = JDT 2458616.5   Earth MOID: 0.0134   AutoNEOCP
M 347.03940861 +/- 24               (J2000 ecliptic)
n   0.84273298 +/- 0.416            Peri.  178.46259 +/- 70
a   1.11005046 +/- 0.365            Node    68.73982 +/- 56
e   0.0745792 +/- 0.256             Incl.    2.41167 +/- 11
P   1.17/427.17d           H 28.6   G  0.15   U 12.2  SR
q 1.02726373 +/- 0.214    Q 1.19283719 +/- 38.5
From 3 observations 2019 May 12 (35.3 min); mean residual 0".18
Residuals in arcseconds: 
190512 F51  .12-  .14+    190512 F51  .24+  .28-    190512 F51  .12-  .14+    

Ephemerides (geocentric):
Date (UTC) HH   RA              Dec         delta   r     elong  mag " sig PA
---- -- -- --  -------------   -----------  ------ ------ -----  --- ---- ---
2019 05 19 15  17 53 41.862   -01 36 36.85  .02030 1.0280 143.4 21.7  71d   5
2019 05 19 16  17 54 03.307   -01 40 59.60  .02028 1.0280 143.3 21.7  71d   5
2019 05 19 17  17 54 24.785   -01 45 22.89  .02027 1.0280 143.3 21.7  71d   5
2019 05 19 18  17 54 46.298   -01 49 46.72  .02025 1.0280 143.3 21.7  71d   5
2019 05 19 19  17 55 07.844   -01 54 11.08  .02023 1.0280 143.3 21.7  71d   5
2019 05 19 20  17 55 29.424   -01 58 35.98  .02021 1.0280 143.3 21.7  71d   5
2019 05 19 21  17 55 51.038   -02 03 01.41  .02019 1.0280 143.3 21.7  72d   5
2019 05 19 22  17 56 12.686   -02 07 27.38  .02017 1.0280 143.3 21.7  72d   5
2019 05 19 23  17 56 34.368   -02 11 53.87  .02016 1.0280 143.3 21.7  72d   5
2019 05 20 00  17 56 56.083   -02 16 20.89  .02014 1.0280 143.3 21.7  72d   5
2019 05 20 01  17 57 17.832   -02 20 48.43  .02012 1.0280 143.3 21.7  72d   5
2019 05 20 02  17 57 39.615   -02 25 16.50  .02010 1.0279 143.3 21.7  72d   5
2019 05 20 03  17 58 01.432   -02 29 45.09  .02008 1.0279 143.3 21.7  72d   5
2019 05 20 04  17 58 23.282   -02 34 14.20  .02007 1.0279 143.3 21.7  72d   5
2019 05 20 05  17 58 45.166   -02 38 43.83  .02005 1.0279 143.3 21.7  72d   5
2019 05 20 06  17 59 07.083   -02 43 13.98  .02003 1.0279 143.2 21.7  72d   5
2019 05 20 07  17 59 29.034   -02 47 44.63  .02001 1.0279 143.2 21.7  72d   5
2019 05 20 08  17 59 51.018   -02 52 15.80  .01999 1.0279 143.2 21.7  72d   5
2019 05 20 09  18 00 13.035   -02 56 47.48  .01998 1.0279 143.2 21.7  72d   5
2019 05 20 10  18 00 35.086   -03 01 19.67  .01996 1.0279 143.2 21.7  72d   5
2019 05 20 11  18 00 57.171   -03 05 52.36  .01994 1.0279 143.2 21.7  72d   5
2019 05 20 12  18 01 19.288   -03 10 25.56  .01993 1.0279 143.2 21.7  72d   5
2019 05 20 13  18 01 41.439   -03 14 59.25  .01991 1.0279 143.2 21.7  72d   5
2019 05 20 14  18 02 03.623   -03 19 33.45  .01989 1.0279 143.2 21.7  72d   5
2019 05 20 15  18 02 25.841   -03 24 08.14  .01988 1.0278 143.2 21.7  72d   5
2019 05 20 16  18 02 48.091   -03 28 43.32  .01986 1.0278 143.1 21.7  72d   5
2019 05 20 17  18 03 10.375   -03 33 19.00  .01984 1.0278 143.1 21.7  72d   5
2019 05 20 18  18 03 32.691   -03 37 55.17  .01983 1.0278 143.1 21.7  72d   5
2019 05 20 19  18 03 55.040   -03 42 31.83  .01981 1.0278 143.1 21.7  72d   5
2019 05 20 20  18 04 17.423   -03 47 08.97  .01979 1.0278 143.1 21.7  72d   5
2019 05 20 21  18 04 39.838   -03 51 46.59  .01978 1.0278 143.1 21.7  72d   5
2019 05 20 22  18 05 02.286   -03 56 24.69  .01976 1.0278 143.1 21.7  72d   5
2019 05 20 23  18 05 24.767   -04 01 03.27  .01974 1.0278 143.1 21.7  72d   5
2019 05 21 00  18 05 47.280   -04 05 42.33  .01973 1.0278 143.1 21.7  72d   5
2019 05 21 01  18 06 09.826   -04 10 21.86  .01971 1.0278 143.0 21.7  72d   5
2019 05 21 02  18 06 32.405   -04 15 01.86  .01970 1.0278 143.0 21.7  72d   5
2019 05 21 03  18 06 55.016   -04 19 42.32  .01968 1.0278 143.0 21.7  72d   5
2019 05 21 04  18 07 17.660   -04 24 23.25  .01966 1.0278 143.0 21.7  72d   5
2019 05 21 05  18 07 40.336   -04 29 04.65  .01965 1.0277 143.0 21.7  72d   5
2019 05 21 06  18 08 03.044   -04 33 46.50  .01963 1.0277 143.0 21.7  72d   5
2019 05 21 07  18 08 25.785   -04 38 28.81  .01962 1.0277 143.0 21.7  72d   5
2019 05 21 08  18 08 48.558   -04 43 11.58  .01960 1.0277 143.0 21.7  72d   5
2019 05 21 09  18 09 11.364   -04 47 54.80  .01959 1.0277 142.9 21.7  72d   5
2019 05 21 10  18 09 34.201   -04 52 38.46  .01957 1.0277 142.9 21.6  72d   5
2019 05 21 11  18 09 57.070   -04 57 22.57  .01956 1.0277 142.9 21.6  72d   5
2019 05 21 12  18 10 19.972   -05 02 07.13  .01954 1.0277 142.9 21.6  72d   5
2019 05 21 13  18 10 42.905   -05 06 52.13  .01953 1.0277 142.9 21.6  72d   5
2019 05 21 14  18 11 05.870   -05 11 37.56  .01951 1.0277 142.9 21.6  72d   5